Weather History for Sandberg, CA

Change the Weather History Date:

Thursday, February 6, 2014

  Actual Average Record
Temperature  
Mean Temperature 39 °F 43 °F  
Max Temperature 43 °F 49 °F 70 °F (1963)
Min Temperature 35 °F 38 °F 13 °F (1989)
Degree Days  
Heating Degree Days 26 22  
Month to date heating degree days 159 132  
Since 1 July heating degree days 1568 2297  
Cooling Degree Days 0 0  
Month to date cooling degree days 0 0  
Year to date cooling degree days 0 0  
Moisture  
Dew Point 31 °F    
Average Humidity 52    
Maximum Humidity 92    
Minimum Humidity 11    
Precipitation  
Precipitation 0.09 in 0.09 in 3.06 in (1973)
Month to date precipitation 0.09 0.44  
Year to date precipitation 0.09 2.85  
Since 1 July precipitation 0.87 6.70  
Sea Level Pressure  
Sea Level Pressure 29.95 in    
Wind  
Wind Speed 13 mph (SSW)    
Max Wind Speed 30 mph    
Max Gust Speed 37 mph    
Visibility 6 miles    
Events Fog , Rain    
T = Trace of Precipitation, MM = Missing Value Source: NWS Daily Summary

Daily Weather History Graph

Daily Weather History Graph

Search for Another Location

Airport:

Trip Planner

Search our weather history database for the weather conditions in past years. The results will help you decide how hot, cold, wet, or windy it might be!

Date:

Astronomy

Feb. 06, 2014 Rise Set
Actual Time 6:49 AM PST 5:29 PM PST
Civil Twilight 6:22 AM PST 5:55 PM PST
Nautical Twilight 5:52 AM PST 6:25 PM PST
Astronomical Twilight 5:23 AM PST 6:55 PM PST
Moon 11:05 AM PST (2/6) 12:09 AM PST (2/6)
Length of Visible Light 11h 32m
Length of Day
10h 40m
Waxing Crescent, 50% of the Moon is Illuminated
Feb 6
Waxing Crescent
Feb 14
Full
Feb 22
Last Quarter
Mar 1
New
Mar 8
First Quarter

Hourly Weather History & Observations

Time (PST) Temp. Windchill Dew Point Humidity Pressure Visibility Wind Dir Wind Speed Gust Speed Precip Events Conditions
12:48 AM 43.0 °F 38.2 °F -8.0 °F 12% 29.98 in 10.0 mi NW 8.1 mph - N/A   Overcast
1:48 AM 42.1 °F 36.6 °F -6.0 °F 13% 29.97 in 10.0 mi West 9.2 mph - N/A   Overcast
2:48 AM 41.0 °F 33.9 °F 3.0 °F 21% 29.97 in 10.0 mi NW 12.7 mph - N/A   Overcast
3:48 AM 39.0 °F 33.4 °F 15.1 °F 38% 29.96 in 10.0 mi West 8.1 mph - N/A   Overcast
4:01 AM 39.0 °F 32.3 °F 16.0 °F 39% 30.00 in 10.0 mi West 10.4 mph - N/A   Overcast
4:36 AM 36.0 °F 28.0 °F 25.0 °F 64% 29.98 in 10.0 mi WNW 11.5 mph - N/A   Scattered Clouds
4:48 AM 36.0 °F 28.0 °F 21.9 °F 57% 29.97 in 10.0 mi WNW 11.5 mph - N/A   Partly Cloudy
5:48 AM 37.0 °F 33.3 °F 21.0 °F 52% 29.96 in 10.0 mi SW 4.6 mph - N/A   Mostly Cloudy
6:48 AM 37.0 °F 31.6 °F 21.9 °F 54% 29.96 in 10.0 mi SW 6.9 mph - N/A   Overcast
7:48 AM 37.0 °F 28.5 °F 25.0 °F 62% 29.96 in 10.0 mi SSW 13.8 mph - N/A   Clear
8:48 AM 39.9 °F 33.4 °F 30.9 °F 70% 29.96 in 10.0 mi SSW 10.4 mph - N/A   Overcast
9:07 AM 39.9 °F 32.9 °F 32.0 °F 73% 30.00 in 10.0 mi South 11.5 mph - N/A   Mostly Cloudy
9:19 AM 39.9 °F 32.9 °F 32.0 °F 73% 30.01 in 10.0 mi South 11.5 mph - N/A   Overcast
9:41 AM 39.9 °F 32.1 °F 33.1 °F 77% 30.00 in 10.0 mi South 13.8 mph - N/A   Overcast
9:48 AM 39.9 °F 31.1 °F 33.1 °F 77% 29.97 in 10.0 mi South 17.3 mph 23.0 mph N/A   Overcast
10:01 AM 39.9 °F 31.4 °F 33.1 °F 77% 30.00 in 10.0 mi South 16.1 mph 23.0 mph N/A   Overcast
10:48 AM 42.1 °F 33.6 °F 35.1 °F 76% 29.95 in 10.0 mi South 18.4 mph 26.5 mph N/A   Overcast
11:08 AM 41.0 °F 31.9 °F 35.1 °F 79% 29.98 in 2.0 mi South 19.6 mph 26.5 mph N/A   Haze
11:26 AM 41.0 °F 31.6 °F 36.0 °F 82% 29.97 in 1.2 mi South 20.7 mph 27.6 mph N/A   Haze
11:31 AM 39.9 °F 29.7 °F 36.0 °F 86% 29.97 in 0.8 mi South 23.0 mph 29.9 mph N/A   Mist
11:42 AM 41.0 °F 31.1 °F 36.0 °F 82% 29.96 in 1.5 mi South 23.0 mph 31.1 mph N/A   Haze
11:46 AM 41.0 °F 31.6 °F 36.0 °F 82% 29.90 in 3.0 mi South 20.7 mph 29.9 mph N/A   Haze
11:58 AM 41.0 °F 30.9 °F 36.0 °F 82% 29.94 in 2.0 mi South 24.2 mph 33.4 mph 0.00 in Rain Light Rain
12:01 PM 39.9 °F 29.2 °F 36.0 °F 86% 29.94 in 1.2 mi South 25.3 mph 33.4 mph 0.00 in Rain Light Rain
12:05 PM 39.9 °F 29.7 °F 36.0 °F 86% 29.94 in 1.2 mi South 23.0 mph 33.4 mph 0.00 in Rain Light Rain
12:12 PM 41.0 °F 30.9 °F 37.0 °F 86% 29.93 in 2.0 mi South 24.2 mph 33.4 mph 0.00 in Rain Light Rain
12:19 PM 42.1 °F 32.6 °F 36.0 °F 79% 29.94 in 5.0 mi South 23.0 mph 31.1 mph 0.00 in   Haze
12:48 PM 42.1 °F 31.5 °F 35.1 °F 76% 29.86 in 10.0 mi South 28.8 mph 36.8 mph 0.00 in   Overcast
1:37 PM 41.0 °F 30.9 °F 36.0 °F 82% 29.90 in 9.0 mi South 24.2 mph 34.5 mph 0.00 in   Overcast
1:48 PM 39.9 °F 29.7 °F 36.0 °F 86% 29.86 in 5.0 mi South 23.0 mph 32.2 mph 0.00 in   Overcast
1:52 PM 39.9 °F 29.7 °F 36.0 °F 86% 29.90 in 1.8 mi South 23.0 mph 34.5 mph N/A   Overcast
1:57 PM 39.9 °F 30.2 °F 36.0 °F 86% 29.90 in 1.0 mi South 20.7 mph 34.5 mph N/A   Overcast
2:02 PM 39.9 °F 31.1 °F 36.0 °F 86% 29.91 in 0.8 mi SSW 17.3 mph 28.8 mph N/A   Overcast
2:09 PM 39.9 °F 30.5 °F 36.0 °F 86% 29.92 in 0.2 mi South 19.6 mph 28.8 mph 0.00 in Fog , Rain Light Rain
2:14 PM 39.9 °F 30.8 °F 36.0 °F 86% 29.92 in 0.2 mi South 18.4 mph 28.8 mph 0.00 in Fog , Rain Light Rain
2:48 PM 39.9 °F 31.8 °F 37.0 °F 89% 29.87 in 0.2 mi South 15.0 mph 27.6 mph 0.07 in Fog , Rain Light Rain
3:48 PM 39.9 °F 32.5 °F 37.9 °F 93% 29.88 in 0.2 mi South 12.7 mph 28.8 mph 0.02 in Fog , Rain Light Rain
4:48 PM 39.9 °F 30.8 °F 37.0 °F 89% 29.90 in 0.2 mi South 18.4 mph 26.5 mph 0.00 in Fog Fog
5:48 PM 39.9 °F 32.1 °F 37.9 °F 93% 29.91 in 0.2 mi SSW 13.8 mph 20.7 mph N/A Fog Fog
6:48 PM 39.9 °F 33.4 °F 37.9 °F 93% 29.93 in 0.2 mi SSW 10.4 mph - N/A Fog Fog
7:48 PM 41.0 °F 35.8 °F 37.9 °F 89% 29.94 in 0.2 mi SSW 8.1 mph - N/A Fog Fog
8:48 PM 39.9 °F 34.5 °F 37.9 °F 93% 29.95 in 0.2 mi SSW 8.1 mph - N/A Fog Fog
9:11 PM 39.9 °F 35.8 °F 37.0 °F 89% 29.99 in 0.5 mi West 5.8 mph - N/A Fog Fog
9:18 PM 39.9 °F 36.7 °F 36.0 °F 86% 29.99 in 1.8 mi WNW 4.6 mph - N/A   Overcast
9:20 PM 39.9 °F 35.8 °F 36.0 °F 86% 29.99 in 3.0 mi WNW 5.8 mph - N/A   Overcast
9:26 PM 39.9 °F 36.7 °F 36.0 °F 86% 29.99 in 10.0 mi WSW 4.6 mph - N/A   Overcast
9:48 PM 39.9 °F 37.8 °F 37.0 °F 89% 29.96 in 10.0 mi Variable 3.5 mph - N/A   Overcast
10:25 PM 39.9 °F 30.2 °F 35.1 °F 83% 30.01 in 10.0 mi NW 20.7 mph 32.2 mph N/A   Scattered Clouds
10:48 PM 42.1 °F 32.8 °F 34.0 °F 73% 29.96 in 10.0 mi NW 21.9 mph 33.4 mph N/A   Clear
11:48 PM 39.0 °F 34.8 °F 35.1 °F 86% 30.00 in 10.0 mi SSW 5.8 mph 18.4 mph N/A   Clear